SYRACUSE 3B (29273 NORAD) Tracking and Keplerian Element Data

This shows tracking and keplerian element data for the satellite.

Feedback or suggestion? Click here.




ElementValue
Catalog29273
NameSYRACUSE 3B
Epoch Orbit7088
Epoch Day354.11364447
Epoch Year2025
RAAN82.3523
Inclination2.4393
Eccentricity0.0003913
Argument of Perigee188.3755
Mean Anonmoly222.4274
Mean Motion1.00271572
Decay Rate4.3E-07
L11 29273U 06033B 25354.11364447 .00000043 00000+0 00000+0 0 9999
L22 29273 2.4393 82.3523 0003913 188.3755 222.4274 1.00271572 70883



Live tracking and technical data element details for SYRACUSE 3B (NORAD 29273). SYRACUSE 3B can be tracked NOW for your location showing map with azimuth and elevation plus other details from your city location.







IsCatalogInMostPopularTable: catalog: 29273, numindb: 572
Update: records affected: 1



GetName: 29273 SYRACUSE 3B

Hit Count: updated at: Sat, 14 Mar 2026 02:36:07 GMT